Date,TemperatureHighF,TemperatureAvgF,TemperatureLowF,DewpointHighF,DewpointAvgF,DewpointLowF,HumidityHigh,HumidityAvg,HumidityLow,PressureMaxIn,PressureMinIn,WindSpeedMaxMPH,WindSpeedAvgMPH,GustSpeedMaxMPH,PrecipitationSumIn
2013-1-1,18.9,11.3,7.2,9.4,5.0,1.8,82,75,66,30.70,30.48,0,0,1,0.00
2013-1-2,16.7,9.1,5.0,8.0,3.3,0.2,82,77,66,30.75,30.61,0,0,1,0.00
2013-1-3,15.9,6.4,1.7,8.8,0.8,-3.8,81,77,64,30.78,30.66,0,0,1,0.00
2013-1-4,16.1,7.6,2.4,8.7,1.8,-2.9,81,77,66,30.75,30.61,0,0,1,0.00
2013-1-5,17.8,9.9,3.7,8.1,3.4,-1.6,81,75,60,30.79,30.50,0,0,1,0.00
2013-1-6,34.3,23.9,12.6,17.2,10.7,4.3,72,57,36,30.51,30.10,0,0,3,0.01
2013-1-7,25.3,16.1,8.4,11.9,7.5,3.2,79,69,55,30.47,30.17,0,0,6,0.01
2013-1-8,32.1,25.9,17.0,23.1,16.1,9.8,73,66,54,30.49,30.32,4,0,7,0.04
2013-1-9,44.6,34.0,25.1,24.0,19.9,16.1,78,58,38,30.47,29.84,0,0,9,0.04
2013-1-10,49.2,35.5,19.2,28.4,17.9,13.5,88,53,27,29.85,29.40,10,1,21,0.00
2013-1-11,19.1,15.9,13.6,15.1,9.5,4.0,86,76,64,30.14,29.58,1,0,6,0.00
2013-1-12,14.3,10.7,4.1,7.9,4.7,-3.6,81,76,68,30.33,30.13,0,0,2,0.00
2013-1-13,10.4,4.5,0.1,1.1,-3.1,-7.6,77,70,63,30.54,30.34,0,0,1,0.06
2013-1-14,8.3,0.7,-2.2,-2.7,-6.7,-9.0,74,70,60,30.68,30.50,0,0,1,0.00
2013-1-15,11.9,11.9,11.9,1.4,1.4,1.4,62,62,62,30.87,30.87,0,0,6,0.00
2013-1-16,19.9,13.8,9.3,9.7,6.4,1.5,81,72,62,30.93,30.81,0,0,3,0.00
2013-1-17,19.9,13.5,9.7,11.1,7.8,5.3,82,78,67,30.90,30.74,0,0,1,0.00
2013-1-18,18.0,12.0,7.2,10.1,6.3,2.6,83,78,63,30.83,30.66,0,0,4,0.00
2013-1-19,24.5,15.5,9.5,14.8,8.8,5.1,84,75,56,30.82,30.65,0,0,5,0.00
2013-1-20,21.4,14.7,10.0,10.7,8.1,5.3,83,75,58,30.72,30.61,0,0,7,0.00
2013-1-21,27.9,18.1,10.2,13.0,9.2,5.7,82,68,51,30.74,30.56,0,0,3,0.00
2013-1-22,32.9,24.0,17.0,14.0,10.7,7.3,68,57,44,30.60,30.37,0,0,1,0.01
2013-1-23,47.7,37.6,24.8,18.3,13.2,7.8,56,37,22,30.40,30.14,0,0,6,0.00
2013-1-24,42.2,38.3,35.0,36.2,27.2,14.4,91,68,34,30.25,30.10,1,0,4,0.04
2013-1-25,41.3,37.4,34.3,35.8,33.2,30.6,93,85,73,30.27,30.08,0,0,1,0.00
2013-1-26,43.1,38.0,31.9,34.0,31.7,28.8,94,78,63,30.08,29.78,0,0,6,0.10
2013-1-27,46.2,35.1,23.8,33.9,28.4,19.9,95,79,36,29.87,29.58,20,2,37,0.03
2013-1-28,25.0,21.6,17.8,21.3,14.2,7.1,91,74,54,30.14,29.85,2,0,5,0.05
2013-1-29,23.0,19.7,17.0,18.9,13.7,7.9,85,78,61,30.31,30.01,0,0,6,0.00
2013-1-30,35.5,28.0,21.1,26.1,21.5,15.8,87,77,64,30.36,30.26,0,0,6,0.13
2013-1-31,38.9,34.4,30.4,24.8,23.3,21.1,72,64,53,30.36,30.27,0,0,6,0.34
2013-2-1,42.8,32.0,26.7,23.4,21.6,19.3,78,66,45,30.45,30.26,0,0,4,0.05
2013-2-2,35.9,29.7,25.4,20.5,18.2,15.4,69,62,50,30.56,30.41,0,0,3,0.00
2013-2-3,37.3,29.6,25.7,20.9,16.7,13.7,66,58,49,30.39,30.18,0,0,4,0.00
2013-2-4,38.5,29.9,22.5,18.7,15.0,12.6,74,54,39,30.35,30.19,0,0,3,0.00
2013-2-5,49.1,37.6,29.7,21.8,14.4,10.6,51,39,21,30.21,29.79,0,0,10,0.00
2013-2-6,40.1,33.0,25.7,22.2,19.4,13.7,77,58,40,30.23,29.78,6,0,9,0.00
2013-2-7,42.9,32.1,23.0,17.4,8.9,2.7,70,40,19,30.26,29.83,1,0,9,0.00
2013-2-8,42.9,35.8,27.3,29.5,20.1,12.8,88,56,32,29.82,29.55,6,1,18,0.03
2013-2-9,30.4,25.1,21.6,23.0,18.7,13.5,89,77,62,29.91,29.67,1,0,5,0.02
2013-2-10,26.7,21.9,20.0,20.8,18.2,16.8,88,85,73,30.12,29.90,0,0,5,0.15
2013-2-11,25.0,19.9,14.9,16.9,14.0,6.1,88,78,64,30.39,30.11,0,0,4,0.15
2013-2-12,25.3,18.5,12.6,15.8,11.3,5.8,79,73,61,30.57,30.40,1,0,6,0.02
2013-2-13,32.5,26.2,21.3,20.9,18.5,16.1,81,73,60,30.50,30.30,0,0,5,0.07
2013-2-14,27.8,26.6,25.6,21.5,20.4,19.6,78,77,76,30.32,30.28,0,0,0,0.00
2013-2-15,36.5,28.7,23.3,20.1,17.9,15.4,77,64,47,30.62,30.48,0,0,5,0.00
2013-2-16,47.4,34.7,25.7,18.0,14.1,2.3,69,46,21,30.54,30.00,0,0,3,0.00
2013-2-17,37.0,31.2,22.9,22.3,13.3,5.5,69,49,27,30.14,29.80,5,0,10,0.00
2013-2-18,34.9,26.3,19.1,12.2,7.7,-0.4,65,47,23,30.28,30.00,3,0,6,0.00
2013-2-19,46.1,36.2,27.5,13.4,5.8,-3.0,39,28,21,29.99,29.50,1,0,10,0.00
2013-2-20,39.6,33.4,25.8,25.9,19.8,11.4,92,59,38,29.77,29.43,2,0,9,0.00
2013-2-21,29.0,24.6,20.3,23.5,18.7,13.0,91,78,57,30.14,29.76,4,0,7,0.22
2013-2-22,28.4,22.8,18.8,19.1,14.6,11.0,81,71,58,30.25,30.11,0,0,4,0.05
2013-2-23,34.0,23.7,19.4,23.4,16.2,11.8,89,73,55,30.17,29.78,7,0,14,0.00
2013-2-24,26.6,21.8,18.6,15.6,13.8,11.8,83,71,56,30.33,30.07,0,0,6,0.19
2013-2-25,32.5,23.0,15.4,15.0,8.8,5.8,70,55,38,30.43,30.08,1,0,10,0.00
2013-2-26,28.4,23.0,18.9,17.7,14.7,8.8,80,70,58,30.46,30.09,4,0,12,0.00
2013-2-27,29.8,22.1,14.1,9.9,6.8,1.2,68,52,29,30.59,30.46,0,0,6,0.00
2013-2-28,39.9,29.6,19.7,16.1,10.8,5.8,56,46,28,30.59,30.48,0,0,6,0.00
2013-3-1,46.1,37.5,32.5,28.7,23.7,13.7,69,58,41,30.56,30.44,1,0,5,0.00
2013-3-2,48.8,39.9,31.8,26.6,24.2,18.4,73,55,35,30.50,30.02,2,0,5,0.00
2013-3-3,45.8,40.7,36.2,34.3,28.8,20.1,86,64,42,30.01,29.81,1,0,10,0.09
2013-3-4,37.3,30.7,23.8,32.7,12.8,0.9,92,50,25,30.35,29.81,2,0,10,0.02
2013-3-5,51.0,36.0,23.6,12.6,4.7,-0.1,42,28,14,30.35,29.91,0,0,3,0.00
2013-3-6,55.6,46.1,37.3,28.0,15.5,10.4,68,31,17,29.90,29.62,15,1,20,0.00
2013-3-7,46.4,37.3,31.0,30.3,28.5,25.4,89,72,44,29.90,29.80,3,0,6,0.00
2013-3-8,40.2,36.3,32.9,33.2,29.5,25.8,93,77,63,29.84,29.63,0,0,4,0.02
2013-3-9,39.1,33.2,29.3,32.8,26.6,18.9,95,78,49,30.25,29.62,4,0,13,0.21
2013-3-10,44.8,34.8,26.3,21.1,16.6,12.8,61,48,31,30.41,30.25,2,0,6,0.02
2013-3-11,48.5,38.5,29.5,24.8,21.7,18.1,65,51,35,30.33,30.11,3,0,5,0.00
2013-3-12,51.7,44.2,38.0,30.2,28.0,23.4,68,54,39,30.20,30.12,2,0,6,0.00
2013-3-13,59.9,49.1,39.2,29.3,25.1,18.6,57,41,27,30.30,30.12,1,0,3,0.00
2013-3-14,52.8,51.7,50.8,18.0,17.0,15.9,26,25,23,30.14,30.08,0,0,0,0.00
2013-3-15,64.7,56.0,47.7,24.5,21.6,19.3,35,26,20,29.93,29.76,1,0,9,0.00
2013-3-16,54.5,48.2,43.9,26.9,20.8,14.1,48,34,25,29.86,29.67,3,0,11,0.00
2013-3-17,49.2,39.7,30.4,27.1,21.6,13.6,59,48,31,29.99,29.59,7,1,14,0.00
2013-3-18,31.5,31.5,31.5,13.6,13.6,13.6,47,47,47,29.98,29.98,0,0,0,0.00
2013-3-21,44.5,35.3,28.2,34.3,21.2,5.5,92,59,31,30.01,29.56,4,1,18,0.00
2013-3-22,29.0,24.8,21.1,21.6,14.9,9.0,90,67,44,30.14,29.91,5,0,15,0.00
2013-3-23,30.7,22.6,17.7,15.9,12.1,6.3,82,65,43,30.33,30.15,1,0,9,0.00
2013-3-24,34.4,25.5,19.2,14.4,8.1,3.0,65,48,34,30.30,30.22,3,0,11,0.00
2013-3-25,43.6,33.6,22.2,20.1,11.4,4.1,47,40,27,30.28,29.99,1,0,9,0.00
2013-3-26,56.9,45.0,36.8,26.9,19.3,15.1,49,37,19,29.95,29.74,1,0,9,0.00
2013-3-27,59.9,47.9,37.2,26.7,21.2,15.5,56,37,19,29.93,29.78,1,0,9,0.00
2013-3-28,50.7,47.2,45.7,21.6,19.6,15.2,37,33,24,29.82,29.80,0,0,1,0.00
2013-3-29,59.3,52.4,45.7,38.4,29.1,26.3,68,41,30,30.06,29.86,5,0,15,0.02
2013-3-30,61.3,51.0,44.6,31.6,26.0,17.4,53,39,25,30.05,29.94,6,1,11,0.00
2013-3-31,64.2,50.5,40.5,30.2,20.4,15.5,44,31,17,30.01,29.76,2,0,11,0.00
2013-4-1,51.7,46.0,40.3,38.1,33.5,28.0,83,63,42,29.88,29.68,11,1,19,0.20
2013-4-2,53.6,42.5,36.2,38.4,35.1,31.2,94,77,47,30.01,29.84,0,0,4,0.23
2013-4-3,61.5,50.0,39.9,37.6,30.2,21.0,71,49,21,30.07,29.96,5,0,9,0.00
2013-4-4,66.9,55.8,45.7,33.0,25.2,18.9,47,32,19,30.00,29.69,4,0,9,0.00
2013-4-5,60.2,50.7,39.8,39.0,30.6,19.9,94,50,22,29.95,29.61,7,1,16,0.36
2013-4-6,55.0,47.4,41.3,38.5,29.6,20.5,79,50,37,29.93,29.79,9,0,14,0.05
2013-4-7,56.2,48.1,39.3,34.3,27.5,11.8,72,48,19,29.83,29.40,3,0,9,0.00
2013-4-8,54.5,39.4,31.8,36.3,29.9,10.5,95,77,17,29.51,29.23,11,1,17,0.61
2013-4-9,35.6,27.7,22.2,30.0,19.0,13.4,95,71,42,30.20,29.52,5,0,12,0.23
2013-4-10,43.8,34.4,23.8,25.7,18.2,13.1,66,52,34,30.23,29.95,2,0,8,0.11
2013-4-11,51.9,41.8,35.3,38.5,29.8,25.8,93,64,36,29.92,29.81,1,0,10,0.11
2013-4-12,55.7,45.1,35.5,29.9,23.2,7.3,60,44,21,29.94,29.76,4,0,10,0.00
2013-4-13,59.0,46.9,37.6,38.1,21.3,8.9,80,40,21,29.74,29.33,13,1,19,0.01
2013-4-14,45.4,37.3,30.6,19.3,10.5,0.3,53,34,23,29.85,29.58,5,1,12,0.00
2013-4-15,43.2,35.9,29.4,31.8,27.4,16.2,93,73,43,29.69,29.52,3,0,10,0.25
2013-4-16,37.9,32.3,30.0,30.0,27.7,21.9,93,84,64,29.92,29.58,0,0,9,0.50
2013-4-17,36.9,31.4,25.7,22.2,15.4,8.5,78,53,34,30.21,29.90,12,2,17,0.04
2013-4-18,42.2,33.0,24.4,16.9,10.5,3.9,67,42,21,30.32,30.21,14,2,15,0.01
2013-4-19,52.5,41.5,31.6,30.3,15.7,6.2,58,35,26,30.28,29.91,7,0,12,0.00
2013-4-20,49.6,41.0,33.4,38.6,33.0,25.1,92,74,49,30.08,29.88,3,0,7,0.46
2013-4-21,59.0,47.5,37.2,30.5,25.4,20.0,63,44,24,30.10,29.80,6,1,10,0.01
2013-4-22,49.1,43.9,35.0,28.8,23.9,13.7,55,45,29,30.07,29.78,9,2,17,0.00
2013-4-23,45.7,36.4,27.3,20.6,13.0,3.9,65,41,19,30.24,30.07,5,0,10,0.00
2013-4-24,54.1,43.5,34.1,15.9,12.0,7.7,43,28,18,30.16,30.00,6,1,10,0.00
2013-4-25,59.9,47.4,36.8,26.3,15.7,-4.8,49,30,11,30.00,29.83,6,0,12,0.00
2013-4-26,64.7,52.6,42.5,21.5,11.0,-4.2,28,19,11,30.11,29.92,4,0,10,0.00
2013-4-27,67.4,56.5,46.0,27.0,19.5,15.1,33,24,16,30.15,29.88,6,0,10,0.00
2013-4-28,73.0,61.3,51.3,31.3,22.5,15.6,32,23,15,29.89,29.64,8,1,14,0.00
2013-4-29,70.6,59.8,49.5,32.6,26.1,19.5,40,28,17,29.77,29.45,4,0,12,0.00
2013-4-30,59.9,50.0,39.2,32.3,21.1,6.2,53,33,16,29.93,29.46,10,1,14,0.00
2013-5-1,44.9,36.9,30.3,23.1,12.4,4.3,61,37,26,30.54,29.95,9,1,16,0.00
2013-5-2,56.0,43.4,30.3,16.6,11.0,3.3,37,27,17,30.62,30.28,5,1,10,0.00
2013-5-3,67.1,51.7,38.8,22.5,16.4,4.2,50,27,9,30.27,29.78,9,0,10,0.00
2013-5-4,63.9,53.9,45.1,21.9,14.3,5.5,29,21,13,29.79,29.64,5,0,9,0.00
2013-5-5,69.8,58.3,47.6,36.1,25.8,18.3,53,30,15,29.68,29.55,3,0,10,0.00
2013-5-6,63.5,53.5,46.7,41.8,30.6,19.5,79,44,22,29.78,29.62,6,0,13,0.02
2013-5-7,46.5,43.3,40.8,36.5,34.9,33.5,76,72,68,29.84,29.79,0,0,4,0.00
2013-5-8,57.8,47.4,38.9,44.6,38.0,34.5,85,71,45,29.95,29.82,2,0,15,0.00
2013-5-9,65.5,54.1,42.8,42.0,36.2,29.5,79,54,27,29.98,29.84,1,0,10,0.00
2013-5-10,70.8,59.3,49.1,39.9,34.0,30.2,56,40,23,30.01,29.89,1,0,10,0.00
2013-5-11,74.0,62.7,53.6,35.0,29.3,23.1,44,30,16,30.07,29.96,2,0,11,0.00
2013-5-12,77.7,68.1,53.5,34.7,28.5,23.4,35,24,16,30.04,29.84,1,0,9,0.00
2013-5-13,84.3,71.6,58.0,38.7,30.3,24.1,36,22,13,29.90,29.64,2,0,7,0.00
2013-5-14,81.4,72.3,62.0,41.2,31.0,23.6,32,22,15,29.71,29.52,5,0,9,0.00
2013-5-15,73.7,67.9,61.8,30.9,26.5,23.2,31,22,15,29.59,29.49,0,0,10,0.00
2013-5-16,76.7,65.7,54.8,39.8,31.7,15.7,53,31,12,29.60,29.42,1,0,18,0.00
2013-5-17,60.7,55.4,47.4,46.0,40.1,29.5,89,58,32,29.77,29.50,7,0,17,0.02
2013-5-18,57.6,48.4,43.2,44.6,41.1,36.0,92,77,47,29.93,29.76,3,0,9,0.10
2013-5-19,56.9,47.8,41.2,41.1,37.4,31.8,87,68,42,29.97,29.84,4,0,14,0.03
2013-5-20,57.8,47.6,41.5,44.5,40.2,35.8,93,77,50,30.06,29.92,0,0,6,0.49
2013-5-21,70.3,57.5,42.3,42.5,33.1,20.0,82,46,17,30.01,29.51,9,1,15,0.00
2013-5-22,78.1,67.2,45.2,40.4,23.6,13.1,68,22,10,29.50,29.22,10,1,17,0.00
2013-5-23,71.8,51.5,35.5,40.1,32.3,10.4,79,53,10,29.80,29.50,7,0,19,0.00
2013-5-24,69.8,55.5,41.2,35.8,28.2,18.8,66,37,20,29.88,29.68,3,0,10,0.00
2013-5-25,77.7,67.0,55.1,34.5,19.4,5.9,38,17,8,29.71,29.52,10,0,13,0.00
2013-5-26,77.7,68.0,57.6,28.6,16.6,8.7,25,14,9,29.62,29.49,10,0,19,0.00
2013-5-27,69.3,59.9,48.6,43.0,34.7,16.7,63,41,14,29.72,29.53,7,0,9,0.00
2013-5-28,62.0,50.2,43.3,43.5,39.3,32.2,91,68,43,29.71,29.48,4,0,10,0.48
2013-5-29,59.5,48.9,40.5,41.2,38.0,32.2,90,68,37,29.76,29.63,3,0,11,0.01
2013-5-30,63.1,52.5,40.9,39.8,34.6,28.9,81,53,30,29.83,29.72,5,0,10,0.00
2013-5-31,62.9,53.1,44.2,34.9,28.6,17.2,64,41,23,30.07,29.79,5,0,10,0.00
2013-6-1,71.6,57.5,43.5,34.0,25.2,17.5,42,30,16,30.07,29.78,1,0,6,0.00
2013-6-2,84.9,70.4,53.5,40.2,24.4,11.4,36,20,8,29.78,29.34,7,0,15,0.00
2013-6-3,78.3,63.2,50.7,40.7,27.8,9.1,49,28,7,29.76,29.32,4,0,19,0.00
2013-6-4,76.5,62.9,50.8,37.7,26.4,14.8,34,25,15,29.79,29.69,4,0,9,0.00
2013-6-5,75.6,63.8,51.1,41.7,34.7,25.2,53,35,20,29.84,29.72,3,0,6,0.00
2013-6-6,78.6,65.7,54.5,41.7,29.3,19.1,36,26,17,29.81,29.70,3,0,9,0.00
2013-6-7,82.0,70.1,58.6,48.0,34.6,26.0,40,28,17,29.73,29.53,3,0,7,0.00
2013-6-8,79.0,70.7,59.2,45.6,35.7,23.7,54,29,15,29.72,29.53,4,0,9,0.00
2013-6-9,89.5,74.3,58.3,45.8,33.2,22.3,37,23,13,29.75,29.46,4,0,6,0.00
2013-6-10,89.3,78.5,66.3,47.7,28.1,8.6,40,18,6,29.54,29.38,4,0,15,0.00
2013-6-11,82.4,73.7,64.2,32.5,22.8,12.7,22,15,9,29.65,29.39,2,0,11,0.00
2013-6-12,84.3,73.1,60.7,52.6,30.3,22.1,49,23,11,29.70,29.52,1,0,18,0.00
2013-6-13,84.1,75.8,57.8,38.5,26.6,5.9,40,18,5,29.69,29.38,4,0,22,0.00
2013-6-14,70.8,59.2,47.1,39.5,33.2,24.0,67,39,22,29.92,29.66,5,0,8,0.00
2013-6-15,80.3,63.5,47.3,41.8,32.2,16.0,59,34,12,29.83,29.67,10,0,11,0.00
2013-6-16,78.3,66.1,58.7,40.8,24.2,14.0,32,21,14,29.73,29.63,0,0,9,0.00
2013-6-18,86.1,74.6,59.3,34.9,18.2,7.2,28,13,7,29.58,29.33,0,0,11,0.00
2013-6-19,78.6,70.3,54.1,27.8,18.3,2.1,32,15,5,29.68,29.29,4,0,19,0.00
2013-6-20,72.8,57.1,43.8,41.5,31.9,23.3,68,41,20,29.80,29.67,1,0,9,0.00
2013-6-21,75.4,61.6,49.8,37.7,32.5,27.6,46,35,20,29.75,29.63,1,0,7,0.00
2013-6-22,73.0,61.3,48.6,42.2,34.7,28.7,54,38,24,29.80,29.66,1,0,10,0.00
2013-6-23,80.3,67.7,50.2,41.4,30.9,20.7,47,26,14,29.72,29.36,1,0,13,0.00
2013-6-24,78.5,70.6,65.0,39.5,28.8,18.9,39,22,14,29.56,29.33,3,0,18,0.00
2013-6-25,83.2,68.9,54.5,47.8,40.5,33.8,69,38,20,29.74,29.56,0,0,7,0.00
2013-6-26,91.0,77.7,63.5,47.6,40.0,33.0,48,27,16,29.72,29.57,1,0,13,0.00
2013-6-27,94.9,80.7,67.3,53.9,42.7,35.5,39,27,16,29.80,29.67,0,0,5,0.00
2013-6-28,96.8,81.7,72.0,53.5,43.2,37.8,37,26,14,29.78,29.66,1,0,11,0.00
2013-6-29,94.3,81.7,70.1,56.6,43.3,30.5,50,27,14,29.74,29.54,0,0,6,0.00
2013-6-30,93.8,82.2,70.1,51.6,41.5,33.7,42,24,14,29.67,29.54,6,0,11,0.00
2013-7-1,95.6,83.4,68.8,51.2,38.9,28.7,35,21,11,29.72,29.56,1,0,15,0.00
2013-7-2,93.4,81.6,70.4,49.0,41.6,34.9,38,25,17,29.69,29.55,0,0,7,0.00
2013-7-3,91.6,80.2,68.3,59.3,41.1,28.2,42,26,15,29.67,29.49,1,0,5,0.00
2013-7-4,88.6,75.7,63.7,58.1,51.4,43.0,76,45,25,29.64,29.47,6,0,10,0.00
2013-7-5,87.0,72.3,58.7,58.5,52.3,43.9,88,53,26,29.70,29.44,9,0,19,0.13
2013-7-6,86.5,68.1,60.1,55.7,49.0,39.8,76,53,21,29.72,29.50,3,0,10,0.01
2013-7-7,86.3,73.0,63.2,52.9,46.3,40.2,57,40,23,29.70,29.57,4,0,17,0.00
2013-7-8,87.8,74.7,63.1,52.2,45.1,35.3,54,36,19,29.76,29.64,0,0,13,0.00
2013-7-9,92.9,82.2,71.8,38.7,28.2,17.2,28,16,8,29.74,29.64,2,0,9,0.00
2013-7-10,96.3,80.6,66.6,46.4,26.2,14.4,39,15,8,29.75,29.53,3,0,10,0.00
2013-7-11,85.7,73.2,61.0,57.4,39.6,15.9,83,37,9,29.71,29.47,1,0,4,0.02
2013-7-12,79.4,65.7,58.9,60.2,54.1,50.9,92,68,37,29.83,29.63,0,0,7,0.27
2013-7-13,84.3,71.6,62.7,57.4,51.7,45.2,75,51,28,29.76,29.64,6,0,13,0.01
2013-7-14,88.2,74.2,62.0,53.2,46.1,37.6,69,40,17,29.86,29.63,5,0,9,0.00
2013-7-15,91.0,77.0,68.6,52.5,45.2,39.2,49,33,20,29.67,29.45,7,0,15,0.00
2013-7-16,87.6,73.4,64.8,61.3,51.5,46.6,80,48,25,29.79,29.54,5,0,7,0.00
2013-7-17,88.4,71.9,63.1,60.9,54.4,45.9,82,59,26,29.79,29.68,13,1,13,0.02
2013-7-18,89.7,76.2,64.0,57.0,49.8,44.3,64,42,24,29.84,29.65,4,0,6,0.00
2013-7-19,92.7,85.0,75.3,52.0,38.0,28.7,39,20,11,29.71,29.55,0,0,0,0.00
2013-7-20,94.0,80.5,69.4,41.7,32.6,25.7,29,19,9,29.63,29.46,0,0,0,0.00
2013-7-21,93.6,79.6,66.9,43.0,31.9,22.5,28,18,10,29.57,29.45,0,0,0,0.00
2013-7-22,94.0,81.3,69.3,46.0,36.6,16.7,35,21,9,29.64,29.51,0,0,0,0.00
2013-7-23,92.3,79.0,69.3,44.1,33.1,19.0,33,20,11,29.69,29.56,0,0,0,0.00
2013-7-24,84.3,75.7,70.1,55.6,42.4,28.1,58,31,17,29.72,29.59,0,0,0,0.00
2013-7-25,92.9,78.1,66.6,47.7,41.1,32.9,46,29,12,29.74,29.62,0,0,0,0.00
2013-7-26,92.5,79.4,66.0,46.8,35.5,27.8,39,22,10,29.82,29.65,0,0,0,0.00
2013-7-27,78.6,72.6,65.3,57.2,49.2,30.8,69,45,18,29.76,29.60,0,0,0,0.00
2013-7-28,80.7,66.3,57.3,57.0,50.8,40.7,79,60,27,29.83,29.58,0,0,0,0.11
2013-7-29,80.7,66.7,58.9,52.5,46.8,37.2,68,50,27,29.86,29.64,0,0,0,0.06
2013-7-30,88.4,77.4,60.7,44.4,36.9,30.9,54,26,13,29.84,29.77,0,0,0,0.00
2013-7-31,92.3,80.3,68.3,46.0,35.1,28.5,37,21,11,29.84,29.61,0,0,0,0.00
2013-8-1,88.6,79.7,67.1,46.3,39.3,29.5,38,24,16,29.67,29.45,0,0,0,0.00
2013-8-2,89.9,76.9,60.7,47.0,33.5,23.5,47,23,10,29.68,29.45,0,0,0,0.00
2013-8-3,89.7,79.3,66.0,35.1,28.2,22.5,27,16,11,29.73,29.55,0,0,0,0.00
2013-8-4,91.0,79.7,66.8,37.1,31.1,26.1,28,18,10,29.75,29.57,0,0,0,0.00
2013-8-5,89.7,81.4,65.2,40.8,35.9,29.2,40,20,12,29.72,29.55,0,0,0,0.00
2013-8-6,91.4,76.9,66.9,43.3,33.4,26.4,36,21,10,29.67,29.55,0,0,0,0.00
2013-8-7,73.7,71.9,70.1,33.7,32.5,31.4,26,24,21,29.59,29.57,0,0,0,0.00
2013-8-8,80.1,71.4,62.9,49.3,38.0,29.5,49,31,18,29.75,29.61,0,0,0,0.00
2013-8-9,80.9,69.3,61.3,44.4,34.4,21.6,46,29,19,29.80,29.64,0,0,1,0.00
2013-8-10,82.8,71.9,60.5,42.1,35.5,31.2,45,28,16,29.85,29.68,0,0,0,0.00
2013-8-11,83.0,72.2,61.8,58.0,37.9,31.0,57,30,18,29.82,29.67,0,0,0,0.00
2013-8-12,84.9,71.5,62.7,45.6,35.9,28.0,41,28,14,29.80,29.68,0,0,0,0.00
2013-8-13,88.6,75.0,60.4,40.9,26.7,14.9,41,20,7,29.85,29.67,0,0,0,0.36
2013-8-14,89.7,75.7,64.0,36.7,26.8,17.2,30,17,8,29.79,29.63,0,0,0,0.00
2013-8-15,89.5,74.9,64.7,29.7,20.9,11.4,19,13,9,29.78,29.63,0,0,0,0.00
2013-8-16,92.1,78.3,66.9,37.0,28.1,14.2,24,16,10,29.79,29.63,0,0,0,0.00
2013-8-17,86.5,74.6,65.5,46.9,39.0,33.5,46,28,18,29.74,29.59,0,0,0,0.30
2013-8-18,69.9,64.7,61.8,47.6,45.0,43.2,53,49,44,29.84,29.71,0,0,0,0.00
2013-8-19,66.6,66.4,66.0,52.3,51.2,50.0,60,58,55,29.72,29.71,0,0,0,0.01
2013-8-20,87.4,72.8,63.1,49.8,47.3,43.7,57,42,25,29.79,29.65,0,0,0,0.00
2013-8-21,86.3,74.1,63.2,49.3,45.4,40.4,55,38,22,29.82,29.66,0,0,0,0.00
2013-8-22,85.3,72.5,65.8,50.1,43.8,39.8,52,37,23,29.81,29.70,0,0,0,0.00
2013-8-23,66.9,62.6,57.5,58.0,53.9,48.5,88,74,58,29.88,29.62,0,0,0,0.05
2013-8-24,75.4,64.1,55.6,62.4,49.9,42.0,81,61,33,29.83,29.71,0,0,0,0.07
2013-8-25,76.5,67.0,56.7,51.1,47.6,44.9,67,51,35,29.91,29.75,0,0,0,0.00
2013-8-26,72.3,64.8,61.0,58.2,51.5,46.4,72,62,50,29.90,29.78,0,0,0,0.01
2013-8-27,76.8,66.2,59.5,57.9,53.8,50.8,93,66,44,29.86,29.68,0,0,0,0.19
2013-8-28,82.8,68.3,58.4,57.8,53.7,46.5,87,62,30,29.87,29.71,0,0,0,0.17
2013-8-29,86.5,73.3,62.4,52.3,48.4,44.5,63,43,25,29.89,29.72,0,0,0,0.00
2013-8-30,88.8,76.5,66.0,50.7,46.8,43.3,51,36,22,29.83,29.65,0,0,0,0.00
2013-8-31,80.1,72.6,67.6,59.3,48.7,42.6,56,43,30,29.75,29.66,0,0,0,0.00
2013-9-1,79.2,68.5,62.9,61.4,54.4,47.8,83,62,44,29.77,29.61,0,0,0,0.05
2013-9-2,85.1,71.6,63.2,58.1,53.7,45.4,81,57,25,29.78,29.62,0,0,0,0.09
2013-9-3,80.9,68.8,60.2,59.5,53.5,48.9,76,59,36,29.84,29.72,0,0,0,0.00
2013-9-4,81.6,68.7,59.2,58.7,53.9,46.3,86,62,32,29.92,29.77,0,0,0,0.15
2013-9-5,84.9,71.3,63.4,57.4,51.8,45.8,73,52,28,29.84,29.69,0,0,3,0.38
2013-9-6,84.7,74.1,64.7,61.4,46.5,38.2,67,39,20,29.85,29.63,0,0,0,0.04
2013-9-7,80.1,64.8,54.8,55.4,50.3,45.6,92,63,31,29.98,29.68,0,0,0,0.87
2013-9-8,68.4,59.3,54.8,58.3,54.9,52.8,94,86,63,29.91,29.72,0,0,0,0.21
2013-9-9,74.9,63.2,55.4,54.4,49.9,46.2,78,63,42,29.77,29.63,0,0,0,0.00
2013-9-10,71.3,64.3,59.8,53.7,48.9,42.8,68,58,47,29.74,29.61,0,0,0,0.00
2013-9-11,74.9,63.6,54.7,56.8,52.5,47.5,93,69,44,29.82,29.71,0,0,0,0.23
2013-9-12,71.3,61.0,53.3,53.9,49.7,46.4,82,67,50,29.96,29.73,0,0,0,0.31
2013-9-13,61.2,56.9,54.4,55.4,52.7,50.7,91,86,74,29.80,29.71,0,0,0,0.13
2013-9-14,66.9,58.0,53.8,56.0,52.7,49.9,92,83,60,29.76,29.65,0,0,0,0.00
2013-9-15,73.5,60.9,52.8,54.4,50.6,46.8,88,70,46,29.84,29.71,0,0,0,0.00
2013-9-16,79.6,68.3,57.0,52.8,47.5,38.1,70,49,27,29.84,29.61,0,0,0,0.00
2013-9-17,81.8,73.6,66.0,48.1,39.4,30.5,45,30,17,29.63,29.31,0,0,0,0.00
2013-9-18,74.0,60.4,47.7,43.2,37.6,28.8,64,45,19,29.86,29.33,0,0,0,0.00
2013-9-19,65.0,52.9,43.3,40.3,30.8,23.7,64,44,21,30.05,29.86,0,0,0,0.00
2013-9-20,75.4,58.0,44.9,46.0,32.2,23.5,59,40,18,29.97,29.61,0,0,0,0.00
2013-9-21,79.0,72.9,64.8,39.5,32.2,27.0,36,23,16,29.62,29.32,0,0,0,0.00
2013-9-22,69.1,59.4,52.5,42.3,35.2,30.1,68,43,24,29.66,29.29,0,0,0,0.01
2013-9-23,62.3,53.2,47.3,40.5,35.9,28.1,67,53,35,29.95,29.66,0,0,0,0.00
2013-9-24,76.3,62.1,46.7,36.7,24.6,8.2,53,28,8,29.92,29.42,0,0,0,0.00
2013-9-25,67.1,54.2,37.9,43.4,30.2,20.7,90,51,17,29.62,29.24,0,0,0,0.27
2013-9-26,51.1,41.4,36.6,38.6,36.0,34.0,91,82,58,29.80,29.60,0,0,0,0.47
2013-9-27,42.6,37.3,34.0,37.1,33.5,28.8,93,86,62,30.21,29.76,0,0,0,0.27
2013-9-28,58.4,46.1,34.4,37.2,29.4,19.7,75,54,32,30.25,30.04,0,0,0,0.00
2013-9-29,71.1,57.8,43.9,32.9,24.1,16.7,49,29,14,30.06,29.72,0,0,0,0.00
2013-9-30,74.0,63.1,52.6,36.5,26.9,21.0,37,26,15,29.76,29.63,0,0,0,0.00
2013-10-1,75.1,60.0,47.4,43.0,31.2,21.6,60,37,15,29.81,29.65,0,0,0,0.00
2013-10-2,68.1,56.6,47.1,43.4,39.3,30.7,79,54,32,29.79,29.58,0,0,0,0.00
2013-10-3,51.4,43.8,36.8,40.9,31.5,21.8,78,62,45,29.99,29.50,0,0,0,0.02
2013-10-4,39.5,35.0,31.6,31.4,28.8,25.4,92,78,63,30.44,30.03,0,0,0,0.00
2013-10-5,49.5,38.3,29.8,28.9,25.8,23.8,80,62,39,30.51,30.39,0,0,0,0.00
2013-10-6,59.6,46.1,33.8,33.7,25.7,19.9,60,46,33,30.42,30.11,0,0,0,0.00
2013-10-7,68.6,57.4,46.1,36.9,24.6,17.2,41,29,17,30.09,29.65,0,0,0,0.00
2013-10-8,67.4,54.5,43.1,34.7,23.1,13.6,54,32,13,29.69,29.55,0,0,0,0.00
2013-10-9,64.8,50.0,41.3,39.6,29.0,19.5,80,47,22,29.61,29.50,0,0,0,0.00
2013-10-10,45.1,42.0,39.5,41.3,39.2,36.8,95,90,76,29.82,29.51,0,0,3,0.31
2013-10-11,53.2,43.0,36.3,39.5,33.7,22.7,93,72,41,30.02,29.83,0,0,0,0.00
2013-10-12,60.9,48.7,38.3,30.3,25.0,19.0,57,40,24,30.01,29.71,0,0,0,0.00
2013-10-13,55.1,54.4,53.2,26.5,26.3,25.9,35,34,33,29.72,29.71,0,0,0,0.00
2013-10-14,47.0,40.9,38.5,37.3,34.5,30.3,93,79,58,30.18,29.93,0,0,0,0.10
2013-10-15,44.1,37.4,32.1,35.8,31.8,28.1,94,80,63,30.19,30.12,6,1,12,0.00
2013-10-16,50.3,38.7,28.8,30.9,27.5,19.9,87,66,42,30.30,30.10,4,2,9,0.00
2013-10-17,54.8,43.3,35.0,26.4,21.8,16.8,53,43,27,30.12,29.95,0,0,0,0.00
2013-10-18,52.6,41.4,34.1,31.3,27.0,23.0,79,58,35,30.25,30.03,6,1,10,0.00
2013-10-19,57.5,44.0,34.0,30.5,26.7,23.1,80,52,31,30.27,30.01,3,0,6,0.00
2013-10-20,58.1,46.9,38.5,31.0,23.0,20.3,51,40,24,30.01,29.88,0,0,0,0.00
2013-10-21,59.3,47.0,37.6,32.6,24.7,20.2,55,42,28,30.18,29.97,5,1,7,0.00
2013-10-22,60.2,48.5,38.8,29.8,25.0,21.7,55,41,24,30.21,30.03,0,0,0,0.00
2013-10-23,61.8,49.8,40.8,32.9,26.7,22.0,54,41,25,30.08,29.93,0,0,0,0.00
2013-10-24,63.1,51.3,42.9,32.9,27.2,21.9,53,39,29,30.07,29.90,0,0,0,0.00
2013-10-25,63.5,52.8,46.4,32.7,25.7,18.5,45,36,18,30.12,29.96,0,0,0,0.00
2013-10-26,63.1,51.4,42.6,29.2,22.9,18.6,45,33,21,30.24,30.05,0,0,0,0.00
2013-10-27,66.1,54.2,45.1,26.4,20.9,15.9,38,28,15,30.03,29.44,0,0,0,0.00
2013-10-28,62.0,51.6,37.5,34.4,23.4,12.6,88,38,15,29.58,29.22,0,0,0,0.14
2013-10-29,43.8,38.9,34.9,33.2,28.2,19.5,81,66,40,29.89,29.54,0,0,0,0.04
2013-10-30,44.8,37.4,35.2,33.4,30.2,26.3,87,75,48,30.04,29.87,0,0,0,0.04
2013-10-31,46.4,40.0,36.2,30.7,27.5,23.9,80,62,45,30.18,30.01,2,0,5,0.00
2013-11-1,51.7,45.9,40.5,31.2,28.4,25.3,61,51,40,30.25,30.08,3,0,12,0.00
2013-11-2,63.1,50.2,39.5,29.0,18.3,6.2,52,31,12,30.16,29.57,0,0,0,0.00
2013-11-3,57.2,42.1,29.7,29.2,20.4,7.7,92,55,14,29.88,29.49,0,0,0,0.00
2013-11-4,28.7,27.0,26.0,20.5,19.3,18.0,76,72,70,30.14,30.10,4,4,7,0.00
2013-11-5,35.3,28.0,21.6,22.9,16.8,10.9,90,65,44,30.45,30.18,3,1,9,0.64
2013-11-6,30.0,28.6,26.6,16.1,13.4,11.0,57,53,48,30.47,30.38,0,0,0,0.00
2013-11-7,53.8,44.9,36.8,25.5,21.8,19.3,56,41,26,30.38,29.93,0,0,0,0.00
2013-11-8,58.9,48.9,42.3,23.5,18.8,14.9,44,31,20,29.96,29.84,0,0,0,0.00
2013-11-9,57.3,48.8,42.9,26.1,20.6,16.8,45,33,23,30.11,29.89,0,0,0,0.00
2013-11-10,59.0,49.8,42.5,29.7,18.5,14.0,41,29,20,30.20,30.05,0,0,0,0.00
2013-11-11,59.2,50.9,44.2,27.4,18.4,13.5,35,28,20,30.27,30.08,0,0,0,0.00
2013-11-12,60.2,51.2,44.2,27.0,18.2,12.4,33,27,18,30.38,30.17,0,0,0,0.00
2013-11-13,56.2,49.1,42.1,28.3,20.3,11.7,49,33,20,30.17,30.01,0,0,0,0.00
2013-11-14,51.0,42.4,35.5,28.1,23.1,13.8,71,48,31,30.15,29.66,0,0,0,0.00
2013-11-15,48.9,35.7,28.7,32.0,26.3,13.1,94,74,27,29.72,29.53,0,0,0,0.02
2013-11-16,39.1,32.2,27.6,31.1,26.2,20.5,93,79,50,29.77,29.58,0,0,0,0.08
2013-11-17,46.5,37.6,29.3,30.9,26.0,18.1,91,65,39,30.12,29.80,0,0,0,0.07
2013-11-18,43.2,40.4,38.0,23.3,22.0,19.8,54,47,42,30.14,30.05,0,0,0,0.00
2013-11-19,48.8,43.4,39.2,39.1,29.8,20.4,86,61,36,29.85,29.77,0,0,0,0.00
2013-11-20,44.9,40.6,37.9,37.8,33.5,28.2,93,76,62,29.84,29.74,0,0,0,0.00
2013-11-21,37.8,33.1,28.7,35.8,30.1,15.4,95,90,46,30.23,29.77,0,0,0,0.00
2013-11-22,38.2,33.1,29.8,14.7,8.6,2.4,48,36,25,30.35,30.22,0,0,0,0.00
2013-11-23,46.1,38.9,33.8,29.4,19.1,1.4,77,48,22,30.23,30.03,0,0,0,0.04
2013-11-24,36.8,34.3,30.7,31.2,28.1,23.9,87,78,67,30.25,30.04,0,0,0,0.00
2013-11-25,39.1,32.2,27.6,29.1,23.9,14.4,91,73,45,30.48,30.24,0,0,0,0.01
2013-11-26,41.9,34.4,28.4,26.5,21.2,17.0,69,59,45,30.51,30.30,0,0,0,0.00
2013-11-27,48.3,40.6,35.5,24.0,17.5,12.6,50,39,30,30.27,30.02,0,0,0,0.00
2013-11-28,48.5,40.9,36.0,22.9,18.9,15.7,48,41,32,30.09,29.99,0,0,0,0.00
2013-11-29,47.6,40.1,35.2,25.7,21.5,18.9,57,47,38,30.25,30.08,0,0,0,0.00
2013-11-30,38.6,35.5,33.5,22.0,20.3,19.1,58,54,48,30.31,30.20,0,0,0,0.00
2013-12-1,48.8,39.6,31.8,25.6,23.2,21.6,68,53,35,30.33,30.07,0,0,0,0.00
2013-12-2,52.9,44.7,39.6,23.4,20.2,15.9,52,38,23,30.06,29.50,0,0,0,0.00
2013-12-3,51.0,25.0,17.2,29.7,19.4,13.7,91,82,23,29.83,29.44,0,0,0,0.00
2013-12-4,26.8,18.4,8.3,25.8,13.4,-0.4,96,82,50,30.24,29.81,5,1,13,0.09
2013-12-5,29.4,14.1,3.4,27.9,11.0,-6.5,94,88,58,30.36,30.06,3,1,5,0.20
2013-12-6,16.5,9.1,2.0,1.3,-3.6,-7.0,65,56,41,30.45,30.21,0,0,0,0.00
2013-12-7,23.5,19.4,14.2,18.8,11.7,1.1,93,72,50,30.19,29.75,2,0,4,0.00
2013-12-8,15.6,10.9,7.0,11.6,5.8,0.2,91,80,65,30.39,29.94,3,0,6,0.00
2013-12-9,28.6,11.3,2.1,25.8,8.7,-0.9,94,89,83,30.86,30.40,5,2,7,0.02
2013-12-10,29.9,10.3,1.7,28.1,3.2,-1.3,96,74,49,30.77,30.50,3,0,5,0.01
2013-12-11,23.6,14.8,8.6,8.8,5.1,1.7,74,65,52,30.75,30.55,0,0,0,0.00
2013-12-12,34.8,21.4,15.8,28.6,12.1,7.1,97,68,49,30.66,30.28,1,0,3,0.03
2013-12-13,25.4,19.2,11.9,14.3,11.5,7.2,81,72,59,30.60,30.24,0,0,0,0.00
2013-12-14,31.0,23.0,17.5,19.5,15.8,11.5,80,74,62,30.76,30.59,0,0,0,0.01
2013-12-15,33.5,26.0,19.9,19.9,16.5,14.6,80,68,54,30.70,30.54,0,0,0,0.03
2013-12-16,38.2,30.7,25.8,18.8,15.4,13.6,65,53,42,30.59,30.46,0,0,0,0.01
2013-12-17,43.1,34.3,27.0,18.2,14.9,11.6,58,45,30,30.58,30.18,0,0,0,0.00
2013-12-18,50.7,40.9,33.7,36.3,19.7,10.1,90,47,20,30.14,29.56,0,0,0,0.15
2013-12-19,38.9,32.2,24.8,35.5,29.9,22.8,93,91,85,29.91,29.46,0,0,0,0.14
2013-12-20,25.3,21.9,18.1,23.3,17.7,12.7,92,84,72,30.06,29.92,0,0,0,0.05
2013-12-21,28.1,24.1,19.4,24.2,19.7,14.2,88,83,74,30.19,29.88,0,0,0,0.00
2013-12-22,29.3,26.8,23.5,24.9,22.2,18.5,89,83,71,30.42,30.19,0,0,0,0.04
2013-12-23,38.0,32.9,27.5,30.1,27.6,24.4,92,81,71,30.52,30.35,0,0,0,0.16
2013-12-24,39.8,32.2,23.6,29.9,20.2,9.2,89,62,41,30.58,30.25,0,0,0,0.08
2013-12-25,29.1,23.2,20.6,11.5,9.6,7.3,60,55,47,30.74,30.57,0,0,0,0.00
2013-12-26,32.5,26.1,19.7,13.0,7.1,2.8,51,44,39,30.66,30.52,0,0,0,0.00
2013-12-27,37.8,30.7,25.6,13.9,9.4,5.0,47,40,32,30.57,30.25,0,0,0,0.00
2013-12-28,37.9,30.3,25.3,19.1,15.7,13.0,73,55,41,30.30,30.08,7,1,15,0.00
2013-12-29,28.7,22.4,15.7,18.1,14.0,10.7,85,70,59,30.51,30.32,3,0,10,0.00
2013-12-30,37.5,28.7,19.4,16.4,11.2,6.5,65,48,28,30.56,30.33,0,0,0,0.00
2013-12-31,42.2,35.0,27.9,25.0,18.6,15.1,65,51,40,30.31,30.16,0,0,0,0.00
2014-1-1,39.2,33.9,28.5,21.8,19.7,14.9,64,56,48,30.44,30.15,0,0,0,0.00
2014-1-2,39.5,31.5,26.7,19.2,15.8,9.5,65,52,40,30.45,30.22,0,0,0,0.00